TimeEST,TemperatureF,Dew PointF,Humidity,Sea Level PressureIn,VisibilityMPH,Wind Direction,Wind SpeedMPH,Gust SpeedMPH,PrecipitationIn,Events,Conditions,WindDirDegrees,DateUTC
12:56 AM,34.0,27.0,75,30.11,10.0,Calm,Calm,-,N/A,,Clear,0,2013-12-20 05:56:00
1:56 AM,37.0,27.0,67,30.09,10.0,Calm,Calm,-,N/A,,Clear,0,2013-12-20 06:56:00
2:56 AM,35.1,30.0,82,30.10,8.0,Calm,Calm,-,N/A,,Clear,0,2013-12-20 07:56:00
3:56 AM,34.0,28.0,79,30.10,9.0,Calm,Calm,-,N/A,,Clear,0,2013-12-20 08:56:00
4:56 AM,33.1,28.0,82,30.10,9.0,Calm,Calm,-,N/A,,Clear,0,2013-12-20 09:56:00
5:56 AM,34.0,28.0,79,30.09,10.0,South,3.5,-,N/A,,Clear,170,2013-12-20 10:56:00
6:56 AM,36.0,28.9,76,30.09,10.0,Calm,Calm,-,N/A,,Clear,0,2013-12-20 11:56:00
7:56 AM,33.1,28.0,82,30.09,9.0,Calm,Calm,-,N/A,,Scattered Clouds,0,2013-12-20 12:56:00
8:56 AM,35.1,28.9,78,30.07,10.0,Calm,Calm,-,N/A,,Scattered Clouds,0,2013-12-20 13:56:00
9:56 AM,41.0,30.9,67,30.06,10.0,Variable,3.5,-,N/A,,Clear,0,2013-12-20 14:56:00
10:56 AM,45.0,28.9,53,30.03,10.0,SSW,6.9,-,N/A,,Partly Cloudy,210,2013-12-20 15:56:00
11:56 AM,46.9,28.0,48,30.01,10.0,Variable,5.8,-,N/A,,Scattered Clouds,0,2013-12-20 16:56:00
12:56 PM,46.9,28.0,48,29.99,10.0,SW,5.8,-,N/A,,Scattered Clouds,220,2013-12-20 17:56:00
1:56 PM,46.9,28.0,48,29.98,10.0,SSW,5.8,-,N/A,,Scattered Clouds,200,2013-12-20 18:56:00
2:56 PM,46.9,28.0,48,29.98,10.0,Variable,4.6,-,N/A,,Scattered Clouds,0,2013-12-20 19:56:00
3:56 PM,48.0,28.9,48,29.99,10.0,Variable,4.6,-,N/A,,Scattered Clouds,0,2013-12-20 20:56:00
4:56 PM,46.9,28.9,50,30.00,10.0,West,5.8,-,N/A,,Scattered Clouds,270,2013-12-20 21:56:00
5:56 PM,46.9,28.9,50,30.00,10.0,SSW,3.5,-,N/A,,Mostly Cloudy,210,2013-12-20 22:56:00
6:56 PM,48.0,28.9,48,29.99,10.0,Variable,3.5,-,N/A,,Partly Cloudy,0,2013-12-20 23:56:00
7:56 PM,46.9,30.0,52,30.01,10.0,Variable,4.6,-,N/A,,Mostly Cloudy,0,2013-12-21 00:56:00
8:56 PM,46.9,30.9,54,30.00,10.0,SSW,5.8,-,N/A,,Mostly Cloudy,200,2013-12-21 01:56:00
9:56 PM,48.0,33.1,56,29.99,10.0,SSW,4.6,-,N/A,,Mostly Cloudy,210,2013-12-21 02:56:00
10:56 PM,46.9,34.0,61,29.98,10.0,SSW,3.5,-,N/A,,Partly Cloudy,210,2013-12-21 03:56:00
11:56 PM,48.0,37.9,68,29.98,10.0,WSW,3.5,-,N/A,,Mostly Cloudy,240,2013-12-21 04:56:00